When you browse on this site, cookies collect data to enhance your experience and personalize the content and advertising you see.
Visit our Privacy Policy to learn more. By continuing to use the site, you agree to this use of cookies and data.
  • en France
  • Liste des pays
  • À 7 jours
  • Température de l'eau
  • Carte météo
  • Widgets météo
  • user-avatar
    Se connecter

    Météo par heure à Radcliffe

    Ce jour, 18 Août, Dimanche

    Heure Température Précipitation Vent Pression Humidité
    00:00 +13°C° 0 mm 5 m/s 742 mmHg 83%
    01:00 +12°C° 0 mm 5 m/s 742 mmHg 84%
    02:00 +12°C° 0 mm 5 m/s 742 mmHg 85%
    03:00 +12°C° 0 mm 4 m/s 742 mmHg 86%
    04:00 +12°C° 0 mm 4 m/s 742 mmHg 86%
    05:00 +12°C° 0 mm 4 m/s 741 mmHg 86%
    06:00 +12°C° 0 mm 4 m/s 741 mmHg 87%
    07:00 +13°C° 0.1 mm 4 m/s 741 mmHg 82%
    08:00 +14°C° 0.1 mm 5 m/s 742 mmHg 77%
    09:00 +15°C° 0.1 mm 6 m/s 742 mmHg 72%
    10:00 +16°C° 0.1 mm 6 m/s 742 mmHg 67%
    11:00 +17°C° 0.1 mm 7 m/s 742 mmHg 63%
    12:00 +18°C° 0.1 mm 7 m/s 742 mmHg 58%
    13:00 +18°C° 0 mm 7 m/s 742 mmHg 58%
    14:00 +18°C° 0 mm 8 m/s 742 mmHg 58%
    15:00 +18°C° 0 mm 8 m/s 742 mmHg 58%
    16:00 +17°C° 0.2 mm 8 m/s 743 mmHg 63%
    17:00 +16°C° 0.2 mm 7 m/s 743 mmHg 68%
    18:00 +16°C° 0.2 mm 7 m/s 743 mmHg 73%
    19:00 +15°C° 0.1 mm 6 m/s 743 mmHg 75%
    20:00 +14°C° 0.1 mm 6 m/s 744 mmHg 78%
    21:00 +14°C° 0.1 mm 5 m/s 744 mmHg 81%
    22:00 +13°C° 0.2 mm 5 m/s 745 mmHg 83%
    23:00 +13°C° 0.2 mm 5 m/s 745 mmHg 85%

    Demain, 19 Août, Lundi

    Heure Température Précipitation Vent Pression Humidité
    00:00 +13°C° 0.2 mm 5 m/s 745 mmHg 86%
    01:00 +13°C° 0.1 mm 5 m/s 746 mmHg 86%
    02:00 +12°C° 0.1 mm 5 m/s 746 mmHg 86%
    03:00 +12°C° 0.1 mm 5 m/s 746 mmHg 86%
    04:00 +12°C° 0 mm 4 m/s 747 mmHg 86%
    05:00 +12°C° 0 mm 4 m/s 747 mmHg 85%
    06:00 +12°C° 0 mm 4 m/s 748 mmHg 85%
    07:00 +13°C° 0.1 mm 5 m/s 748 mmHg 81%
    08:00 +14°C° 0.1 mm 5 m/s 749 mmHg 77%
    09:00 +15°C° 0.1 mm 5 m/s 749 mmHg 74%
    10:00 +15°C° 0.4 mm 6 m/s 749 mmHg 72%
    11:00 +16°C° 0.4 mm 6 m/s 750 mmHg 69%
    12:00 +16°C° 0.4 mm 7 m/s 750 mmHg 67%
    13:00 +16°C° 0.1 mm 6 m/s 750 mmHg 64%
    14:00 +17°C° 0.1 mm 6 m/s 750 mmHg 61%
    15:00 +17°C° 0.1 mm 6 m/s 751 mmHg 57%
    16:00 +16°C° 0.1 mm 6 m/s 751 mmHg 61%
    17:00 +15°C° 0.1 mm 5 m/s 751 mmHg 65%
    18:00 +15°C° 0.1 mm 5 m/s 751 mmHg 69%
    19:00 +14°C° 0 mm 5 m/s 752 mmHg 72%
    20:00 +13°C° 0 mm 4 m/s 752 mmHg 75%
    21:00 +12°C° 0 mm 4 m/s 753 mmHg 78%
    22:00 +12°C° 0.1 mm 4 m/s 753 mmHg 80%
    23:00 +12°C° 0.1 mm 4 m/s 753 mmHg 82%

    Après-demain, 20 Août, Mardi

    Heure Température Précipitation Vent Pression Humidité
    00:00 +12°C° 0.1 mm 4 m/s 753 mmHg 84%
    01:00 +12°C° 0.1 mm 4 m/s 754 mmHg 85%
    02:00 +11°C° 0.1 mm 4 m/s 754 mmHg 86%
    03:00 +11°C° 0.1 mm 4 m/s 754 mmHg 87%
    04:00 +11°C° 0.2 mm 4 m/s 755 mmHg 87%
    05:00 +12°C° 0.2 mm 4 m/s 755 mmHg 88%
    06:00 +12°C° 0.2 mm 4 m/s 755 mmHg 88%
    07:00 +12°C° 0.5 mm 4 m/s 756 mmHg 86%
    08:00 +13°C° 0.5 mm 4 m/s 756 mmHg 84%
    09:00 +13°C° 0.5 mm 4 m/s 756 mmHg 82%
    10:00 +14°C° 0.3 mm 5 m/s 757 mmHg 76%
    11:00 +15°C° 0.3 mm 5 m/s 757 mmHg 70%
    12:00 +16°C° 0.3 mm 6 m/s 758 mmHg 65%
    13:00 +16°C° 0 mm 5 m/s 758 mmHg 62%
    14:00 +16°C° 0 mm 5 m/s 758 mmHg 60%
    15:00 +16°C° 0 mm 5 m/s 758 mmHg 57%
    16:00 +17°C° 0 mm 4 m/s 758 mmHg 62%
    17:00 +17°C° 0 mm 4 m/s 758 mmHg 67%
    18:00 +17°C° 0 mm 3 m/s 758 mmHg 72%
    19:00 +16°C° 0 mm 3 m/s 759 mmHg 76%
    20:00 +15°C° 0 mm 2 m/s 759 mmHg 80%
    21:00 +14°C° 0 mm 2 m/s 759 mmHg 84%
    22:00 +14°C° 0 mm 2 m/s 759 mmHg 85%
    23:00 +14°C° 0 mm 2 m/s 759 mmHg 87%

    21 Août, Mercredi

    Heure Température Précipitation Vent Pression Humidité
    00:00 +13°C° 0 mm 2 m/s 759 mmHg 89%
    01:00 +13°C° 0 mm 2 m/s 759 mmHg 89%
    02:00 +14°C° 0 mm 2 m/s 759 mmHg 90%
    03:00 +14°C° 0 mm 2 m/s 759 mmHg 90%
    04:00 +14°C° 0 mm 2 m/s 759 mmHg 90%
    05:00 +14°C° 0 mm 2 m/s 759 mmHg 90%
    06:00 +14°C° 0 mm 2 m/s 759 mmHg 91%
    07:00 +15°C° 0 mm 2 m/s 759 mmHg 86%
    08:00 +16°C° 0 mm 3 m/s 759 mmHg 80%
    09:00 +17°C° 0 mm 3 m/s 760 mmHg 75%
    10:00 +18°C° 0.2 mm 3 m/s 759 mmHg 73%
    11:00 +18°C° 0.2 mm 4 m/s 759 mmHg 70%
    12:00 +19°C° 0.2 mm 4 m/s 759 mmHg 67%
    13:00 +19°C° 0.5 mm 4 m/s 758 mmHg 68%
    14:00 +19°C° 0.5 mm 4 m/s 758 mmHg 69%
    15:00 +19°C° 0.5 mm 5 m/s 758 mmHg 70%
    16:00 +18°C° 0.2 mm 4 m/s 758 mmHg 71%
    17:00 +18°C° 0.2 mm 4 m/s 758 mmHg 72%
    18:00 +17°C° 0.2 mm 4 m/s 757 mmHg 73%
    19:00 +16°C° 0.1 mm 3 m/s 758 mmHg 76%
    20:00 +16°C° 0.1 mm 3 m/s 758 mmHg 78%
    21:00 +14°C° 0.1 mm 3 m/s 758 mmHg 81%
    22:00 +14°C° 0.1 mm 3 m/s 758 mmHg 82%
    23:00 +14°C° 0.1 mm 3 m/s 758 mmHg 83%

    22 Août, Jeudi

    Heure Température Précipitation Vent Pression Humidité
    00:00 +14°C° 0.1 mm 3 m/s 758 mmHg 85%
    01:00 +13°C° 0.1 mm 4 m/s 758 mmHg 86%
    02:00 +13°C° 0.1 mm 4 m/s 758 mmHg 87%
    03:00 +13°C° 0.1 mm 4 m/s 757 mmHg 89%
    04:00 +13°C° 0.1 mm 3 m/s 758 mmHg 89%
    05:00 +13°C° 0.1 mm 3 m/s 758 mmHg 89%
    06:00 +13°C° 0.1 mm 2 m/s 758 mmHg 89%
    07:00 +14°C° 0 mm 2 m/s 758 mmHg 83%
    08:00 +14°C° 0 mm 3 m/s 759 mmHg 77%
    09:00 +16°C° 0 mm 3 m/s 759 mmHg 71%
    10:00 +17°C° 0 mm 3 m/s 759 mmHg 68%
    11:00 +18°C° 0 mm 3 m/s 758 mmHg 65%
    12:00 +19°C° 0 mm 3 m/s 758 mmHg 61%
    13:00 +19°C° 0 mm 4 m/s 758 mmHg 60%
    14:00 +20°C° 0 mm 4 m/s 758 mmHg 58%
    15:00 +20°C° 0 mm 4 m/s 758 mmHg 56%
    16:00 +20°C° 0 mm 3 m/s 758 mmHg 60%
    17:00 +19°C° 0 mm 3 m/s 758 mmHg 65%
    18:00 +18°C° 0 mm 2 m/s 758 mmHg 69%
    19:00 +18°C° 0 mm 2 m/s 758 mmHg 73%
    20:00 +17°C° 0 mm 3 m/s 758 mmHg 76%
    21:00 +16°C° 0 mm 3 m/s 758 mmHg 80%
    22:00 +16°C° 0 mm 3 m/s 758 mmHg 82%
    23:00 +14°C° 0 mm 3 m/s 758 mmHg 84%

    23 Août, Vendredi

    Heure Température Précipitation Vent Pression Humidité
    00:00 +14°C° 0 mm 3 m/s 758 mmHg 87%
    01:00 +14°C° 0 mm 3 m/s 758 mmHg 89%
    02:00 +14°C° 0 mm 3 m/s 757 mmHg 91%
    03:00 +13°C° 0 mm 3 m/s 757 mmHg 93%
    04:00 +13°C° 0 mm 3 m/s 757 mmHg 92%
    05:00 +14°C° 0 mm 3 m/s 757 mmHg 92%
    06:00 +14°C° 0 mm 3 m/s 757 mmHg 92%
    07:00 +16°C° 0 mm 3 m/s 757 mmHg 87%
    08:00 +17°C° 0 mm 3 m/s 758 mmHg 83%
    09:00 +18°C° 0 mm 4 m/s 758 mmHg 79%
    10:00 +19°C° 0 mm 4 m/s 757 mmHg 75%
    11:00 +20°C° 0 mm 4 m/s 757 mmHg 71%
    12:00 +21°C° 0 mm 3 m/s 757 mmHg 68%
    13:00 +21°C° 0 mm 4 m/s 757 mmHg 65%
    14:00 +22°C° 0 mm 4 m/s 757 mmHg 62%
    15:00 +23°C° 0 mm 4 m/s 757 mmHg 60%
    16:00 +22°C° 0 mm 3 m/s 757 mmHg 62%
    17:00 +21°C° 0 mm 3 m/s 756 mmHg 65%
    18:00 +20°C° 0 mm 2 m/s 756 mmHg 67%
    19:00 +19°C° 0 mm 2 m/s 756 mmHg 70%
    20:00 +19°C° 0 mm 1 m/s 757 mmHg 72%
    21:00 +18°C° 0 mm 1 m/s 757 mmHg 74%
    22:00 +16°C° 0 mm 1 m/s 757 mmHg 75%
    23:00 +16°C° 0 mm 1 m/s 757 mmHg 76%
    Voir plus